"Time","Temp","Dewpoint","Humidity","Pressure","Direction","Speed","Gust","Precip","PrecipRate"
"00:04:56","74.6","73.7","97","29.80","236","0","0","0.00","0.00"
"00:09:56","74.7","73.8","97","29.80","236","0","0","0.00","0.00"
"00:14:57","74.6","73.7","97","29.80","236","0","0","0.00","0.00"
"00:19:57","74.6","73.7","97","29.78","236","0","0","0.00","0.00"
"00:24:57","74.6","73.7","97","29.78","236","0","0","0.00","0.00"
"00:29:57","74.5","73.6","97","29.79","236","0","0","0.00","0.00"
"00:34:58","74.5","73.6","97","29.79","236","0","0","0.00","0.00"
"00:39:57","74.5","73.6","97","29.79","236","0","0","0.01","0.01"
"00:44:57","74.5","73.6","97","29.79","236","0","0","0.01","0.01"
"00:49:58","74.5","73.6","97","29.79","236","0","0","0.02","0.02"
"00:54:59","74.4","73.5","97","29.79","236","0","0","0.02","0.02"
"00:59:56","74.4","73.5","97","29.79","236","0","0","0.03","0.03"
"01:04:56","74.4","73.5","97","29.78","344","0","1","0.04","0.03"
"01:09:59","74.3","73.4","97","29.78","342","0","0","0.04","0.04"
"01:14:57","74.2","73.3","97","29.78","342","0","0","0.05","0.05"
"01:19:59","74.2","73.3","97","29.78","342","0","0","0.05","0.05"
"01:24:58","74.1","73.2","97","29.78","342","0","0","0.06","0.06"
"01:29:59","74.1","73.2","97","29.78","342","0","0","0.06","0.06"
"01:34:59","74","73.1","97","29.78","342","0","0","0.06","0.06"
"01:39:56","73.9","73","97","29.78","341","0","0","0.07","0.06"
"01:44:57","73.9","73","97","29.78","341","0","0","0.07","0.06"
"01:49:59","73.8","72.9","97","29.77","341","0","0","0.08","0.06"
"01:54:57","73.8","72.9","97","29.77","341","0","0","0.09","0.07"
"01:59:57","73.7","72.8","97","29.77","339","1.2","4","0.10","0.07"
"02:04:55","73.6","72.7","97","29.76","345","1.1","5","0.10","0.07"
"02:09:59","73.6","72.7","97","29.76","344","2","4.6","0.11","0.07"
"02:14:56","73.5","72.6","97","29.76","347","2.1","5","0.11","0.07"
"02:19:58","73.5","72.6","97","29.76","5","0.7","3.5","0.12","0.07"
"02:24:57","73.5","72.6","97","29.76","5","0.4","2","0.15","0.08"
"02:29:59","73.5","72.6","97","29.76","5","0.2","2","0.19","0.13"
"02:34:59","73.5","72.6","97.1","29.76","5","0.8","2.3","0.20","0.14"
"02:39:57","73.5","72.9","98","29.76","5","0.4","2","0.23","0.16"
"02:44:59","73.6","73","98","29.76","101","0.3","5","0.26","0.18"
"02:49:58","73.6","73","98","29.75","118","0.9","4.6","0.26","0.19"
"02:54:58","73.7","73.1","98","29.75","72","0.7","3.5","0.26","0.18"
"02:59:56","73.5","72.6","97","29.75","43","0.7","2.3","0.26","0.17"
"03:04:54","72.9","71.5","95.4","29.74","45","0.7","2.3","0.26","0.16"
"03:09:57","72.3","70.8","95","29.74","46","0.4","2.3","0.26","0.16"
"03:14:56","72","70.7","95.8","29.74","62","0.8","3.5","0.27","0.16"
"03:19:58","71.9","70.9","96.7","29.74","93","1","3.5","0.27","0.16"
"03:24:56","72","71.1","96.9","29.74","81","0.9","3.5","0.27","0.15"
"03:29:58","71.8","70.6","96","29.74","85","1.1","3.5","0.27","0.12"
"03:34:59","71.5","70.3","95.8","29.73","87","0.9","4","0.27","0.08"
"03:39:59","71.3","70.1","96","29.73","96","1.6","3.5","0.27","0.07"
"03:44:59","71.2","70","96","29.73","100","1.3","4","0.27","0.04"
"03:49:57","71.1","69.9","96","29.73","104","0.7","3.5","0.27","0.01"
"03:54:58","71","69.8","96","29.73","107","1.1","3.5","0.27","0.01"
"03:59:59","71","69.8","96","29.73","122","0.9","3.5","0.27","0.01"
"04:04:57","70.9","69.7","96","29.73","123","0.3","3","0.27","0.01"
"04:09:56","70.9","69.7","96","29.73","156","1.3","3.5","0.27","0.01"
"04:14:57","70.8","69.6","96","29.74","156","0.5","2.3","0.27","0.01"
"04:19:57","70.8","69.8","96.6","29.74","156","0.4","2.3","0.27","0.00"
"04:24:58","70.9","70","97","29.74","156","1.2","3.5","0.27","0.00"
"04:29:56","71","70.1","97","29.74","240","1.3","4","0.27","0.00"
"04:34:56","71.1","70.2","97","29.74","252","0.5","4","0.27","0.00"
"04:39:58","71.1","70.2","97","29.74","237","0.6","2.3","0.27","0.00"
"04:44:56","71.1","70.2","97","29.74","234","0.7","2.3","0.27","0.00"
"04:49:59","71.2","70.3","97","29.74","234","0.1","2","0.27","0.00"
"04:54:58","71.2","70.3","97","29.74","234","0.8","2.3","0.27","0.00"
"04:59:56","71.3","70.4","97","29.74","235","0.5","2.3","0.27","0.00"
"05:04:57","71.3","70.4","97","29.73","234","0.1","1.2","0.27","0.00"
"05:09:56","71.4","70.5","97","29.73","235","0.2","2","0.27","0.00"
"05:14:57","71.3","70.4","97","29.73","358","0.5","2.3","0.27","0.00"
"05:19:59","71.3","70.4","97","29.72","30","0.5","3","0.27","0.00"
"05:24:57","71.3","70.4","97","29.72","30","0.1","1.2","0.27","0.00"
"05:29:59","71.3","70.4","97","29.72","30","0","1.2","0.27","0.00"
"05:34:58","71.3","70.4","97","29.72","30","0","0","0.27","0.00"
"05:39:59","71.2","70.3","97","29.72","30","0","0","0.27","0.00"
"05:44:58","71.2","70.3","97","29.72","30","0.3","1.2","0.27","0.00"
"05:49:57","71.3","70.4","97","29.72","30","0.2","1.2","0.27","0.00"
"05:54:56","71.4","70.5","97","29.72","30","0.1","1.2","0.27","0.00"
"05:59:58","71.5","70.6","97","29.72","30","0.1","1.2","0.27","0.00"
"06:04:56","71.5","70.6","97","29.72","30","0","0","0.27","0.00"
"06:09:56","71.5","70.6","97","29.72","30","0","1.2","0.27","0.00"
"06:14:56","71.6","70.7","97","29.72","30","0","1","0.27","0.00"
"06:19:59","71.6","70.7","97","29.72","30","0","1.2","0.27","0.00"
"06:24:58","71.7","70.8","97","29.72","30","0.1","1.2","0.27","0.00"
"06:29:57","71.7","70.9","97.3","29.72","30","0.2","1.2","0.27","0.00"
"06:34:56","71.7","70.8","97","29.72","30","0.2","2","0.27","0.00"
"06:39:58","71.7","70.8","97","29.72","64","0.7","3.5","0.27","0.00"
"06:44:58","71.7","70.8","97","29.72","65","0.7","3.5","0.27","0.00"
"06:49:56","71.7","70.8","97","29.72","64","0.1","1.2","0.27","0.00"
"06:54:59","71.6","70.7","97","29.72","63","0.1","1.2","0.27","0.00"
"06:59:57","71.6","70.7","97","29.72","63","0.1","1.2","0.27","0.00"
"07:04:59","71.5","70.6","97","29.71","63","0","0","0.27","0.00"
"07:09:58","71.6","70.7","97","29.71","63","0.1","1.2","0.27","0.00"
"07:14:59","71.6","70.7","97","29.71","63","0","1","0.27","0.00"
"07:19:56","71.7","70.8","97","29.71","63","0.2","1.2","0.27","0.00"
"07:24:57","71.7","70.8","97","29.71","63","0","1.2","0.27","0.00"
"07:29:59","71.7","70.8","97","29.71","63","0","0","0.27","0.00"
"07:34:59","71.7","70.8","97","29.71","63","0.1","1.2","0.27","0.00"
"07:39:57","71.7","70.8","97","29.71","63","0","0","0.27","0.00"
"07:44:58","71.7","70.8","97","29.71","63","0","1.2","0.27","0.00"
"07:49:56","71.7","70.8","97","29.71","63","0.2","1.2","0.27","0.00"
"07:54:58","71.7","70.8","97","29.71","63","0","0","0.27","0.00"
"07:59:56","71.8","71","97.2","29.71","63","0.1","1.2","0.27","0.00"
"08:04:57","71.9","71.2","97.6","29.70","63","0.1","1.2","0.27","0.00"
"08:09:55","72","71.4","98","29.70","63","0.1","1.2","0.27","0.00"
"08:14:56","72.1","71.2","97.1","29.70","63","0","1.2","0.27","0.00"
"08:19:58","72.2","71.3","97","29.70","63","0.1","1.2","0.27","0.00"
"08:24:56","72.3","71.4","97","29.70","63","0","1.2","0.27","0.00"
"08:29:57","72.4","71.5","97","29.70","63","0.1","1.2","0.27","0.00"
"08:34:57","72.4","71.5","97","29.70","63","0","1.2","0.27","0.00"
"08:39:59","72.4","71.5","97","29.70","63","0","1.2","0.27","0.00"
"08:44:55","72.5","71.6","97","29.70","63","0","1.2","0.27","0.00"
"08:49:59","72.6","71.7","97","29.69","63","0","1.2","0.27","0.00"
"08:54:57","72.6","71.7","97","29.69","63","0","0","0.27","0.00"
"08:59:59","72.7","71.8","97","29.69","63","0.1","1.2","0.27","0.00"
"09:04:56","72.8","71.9","97","29.69","63","0.1","1.2","0.27","0.00"
"09:09:59","72.8","71.9","97","29.69","63","0.2","2.3","0.27","0.00"
"09:14:59","72.8","71.9","97","29.69","64","0.2","1.2","0.27","0.00"
"09:19:55","72.9","72","97","29.68","77","0.8","3.5","0.27","0.00"
"09:24:56","72.9","72","97","29.68","40","1.5","3.5","0.27","0.00"
"09:29:56","73","72.1","97","29.68","104","0.5","2.3","0.27","0.00"
"09:34:58","73","72.3","97.6","29.68","78","0.4","2.3","0.27","0.00"
"09:39:59","73.1","72.2","97","29.68","73","0.6","2.3","0.27","0.00"
"09:44:58","73.3","72.5","97.4","29.68","73","0.6","2.3","0.27","0.00"
"09:49:59","73.4","72.6","97.3","29.68","74","0.6","3.5","0.27","0.00"
"09:54:57","73.6","73","97.9","29.68","75","0.4","2","0.27","0.00"
"09:59:57","73.8","73.1","97.6","29.68","76","0.9","3","0.27","0.00"
"10:04:58","73.9","73.2","97.6","29.67","96","0.7","3.5","0.27","0.00"
"10:09:56","74.1","73.4","97.5","29.67","103","0.6","2.3","0.27","0.00"
"10:14:59","74.3","73.5","97","29.67","120","1.2","4","0.27","0.00"
"10:19:59","74.5","73.6","97","29.66","114","1.2","5","0.27","0.00"
"10:24:56","74.7","73.8","97","29.66","130","2","7","0.27","0.00"
"10:29:57","74.8","73.8","96.5","29.66","114","2.2","6.9","0.27","0.00"
"10:34:57","74.9","73.7","96","29.66","130","1.9","6","0.27","0.00"
"10:39:58","75","73.8","96","29.66","121","1.8","5","0.27","0.00"
"10:44:59","75.2","74","96","29.66","139","1.8","5","0.27","0.00"
"10:49:55","75.3","73.9","95.2","29.65","111","2.1","6","0.27","0.00"
"10:54:58","75.4","73.9","95","29.65","130","2.9","6","0.27","0.00"
"10:59:58","75.5","74","95","29.65","122","1.3","5","0.27","0.00"
"11:04:56","75.6","74","94.8","29.65","136","1.8","5","0.27","0.00"
"11:09:59","75.7","74.1","94.8","29.65","127","1.5","5","0.27","0.00"
"11:14:56","75.8","74.1","94.4","29.65","130","2.2","9.2","0.27","0.00"
"11:19:56","75.9","74","94","29.63","118","1.9","5.8","0.27","0.00"
"11:24:58","76.1","74","93.5","29.63","126","2.3","5","0.27","0.00"
"11:29:56","76.4","74.2","93.2","29.63","115","2.1","6","0.27","0.00"
"11:34:58","76.7","74.4","92.9","29.62","110","2.1","5.8","0.27","0.00"
"11:39:58","76.9","74.4","92","29.62","127","2.3","7","0.27","0.00"
"11:44:56","77.1","74.5","91.9","29.62","151","1.6","7","0.27","0.00"
"11:49:57","77.1","74.3","91","29.61","113","3.2","7","0.27","0.00"
"11:54:58","77.2","74.3","90.7","29.61","120","3.1","11","0.27","0.00"
"11:59:59","77.2","74.3","90.6","29.61","125","2.8","6","0.27","0.00"
"12:04:56","77.2","74.4","91","29.60","107","3.7","9.2","0.29","0.01"
"12:09:58","76.9","74.3","91.8","29.60","132","3.3","9.2","0.29","0.02"
"12:14:56","76.6","74.3","92.5","29.60","126","2.3","9","0.29","0.02"
"12:19:56","76.4","74.2","93","29.59","123","3.7","7","0.29","0.02"
"12:24:57","76.3","74.2","93.5","29.59","122","3.2","9.2","0.30","0.03"
"12:29:58","76.1","74.2","94","29.59","136","2.9","9","0.30","0.03"
"12:34:59","76","74.1","94","29.58","144","3.3","6","0.30","0.03"
"12:39:59","75.8","74.3","95","29.58","131","2.2","5","0.31","0.04"
"12:44:57","75.7","74.2","95","29.58","112","2.1","7","0.32","0.05"
"12:49:58","75.7","74.2","95","29.57","125","1.9","6","0.32","0.05"
"12:54:59","75.6","74.1","95","29.57","123","1.9","5","0.32","0.05"
"12:59:58","75.6","74.3","95.6","29.57","132","2.5","6","0.33","0.06"
"13:04:56","75.6","74.4","95.9","29.56","145","1.5","3.5","0.33","0.06"
"13:09:58","75.8","74.8","96.5","29.56","130","2","5","0.33","0.04"
"13:14:59","76.3","75.4","97","29.56","127","2.3","7","0.33","0.04"
"13:19:56","76.7","75.5","96","29.55","150","3.7","13","0.33","0.04"
"13:24:57","77","75.7","95.5","29.55","162","3.6","7","0.33","0.03"
"13:29:59","77.3","75.5","94.4","29.55","161","4.1","11","0.33","0.03"
"13:34:59","77.5","75.3","93.2","29.55","163","4.8","11.5","0.33","0.03"
"13:39:58","77.7","75.5","93","29.55","154","4.1","9.2","0.33","0.03"
"13:44:56","77.9","75.4","92.2","29.55","155","4.6","13","0.33","0.02"
"13:49:57","78.1","75.6","92.2","29.54","157","3.3","10.4","0.33","0.01"
"13:54:59","78.3","75.7","91.6","29.54","147","4","12","0.33","0.01"
"13:59:57","78.4","75.4","90.4","29.54","130","4.8","11.5","0.33","0.01"
"14:04:58","78.4","75.3","90.2","29.54","146","4.2","10.4","0.33","0.00"
"14:09:56","78.3","75.5","91","29.54","164","3.2","7","0.33","0.00"
"14:14:57","78","75.4","91.4","29.54","137","3.3","7","0.38","0.03"
"14:19:58","77.5","75","92","29.53","139","6.2","15","0.41","0.07"
"14:24:59","76.8","74.5","92.8","29.53","153","6","18","0.42","0.09"
"14:29:57","76.3","74.4","94","29.54","189","5.7","12.7","0.44","0.11"
"14:34:59","76.1","74.5","94.9","29.54","168","3.7","10.4","0.46","0.12"
"14:39:59","75.9","74.4","95","29.54","177","4.3","12","0.47","0.14"
"14:44:57","75.7","74.2","95","29.54","162","3.9","11.5","0.48","0.15"
"14:49:58","75.6","74.2","95.2","29.54","176","3.9","9.2","0.49","0.16"
"14:54:56","75.6","74.4","96","29.54","191","4.6","10.4","0.50","0.17"
"14:59:57","75.5","74.3","96","29.54","188","4","8.1","0.50","0.17"
"15:04:59","75.6","74.4","96","29.53","169","2.8","7","0.50","0.17"
"15:09:58","75.7","74.8","96.9","29.53","170","2.6","7","0.50","0.17"
"15:14:58","76","75.1","97","29.53","154","2.2","4","0.50","0.17"
"15:19:58","76.4","75.5","97","29.52","165","1.5","7","0.50","0.12"
"15:24:56","76.5","75.4","96.4","29.52","173","3.5","8","0.50","0.09"
"15:29:57","76.6","75.6","96.5","29.52","206","2.2","5","0.50","0.08"
"15:34:59","76.8","75.7","96.3","29.51","182","2.8","9.2","0.50","0.06"
"15:39:57","77","75.8","96","29.51","184","3.9","10.4","0.50","0.04"
"15:44:59","77.2","75.8","95.5","29.51","184","3.6","7","0.50","0.03"
"15:49:57","77.6","76.4","96.1","29.51","173","2.6","6.9","0.50","0.02"
"15:54:59","78","76.4","94.8","29.51","183","4.8","14","0.50","0.01"
"15:59:59","78.1","76.3","94.2","29.51","180","3.2","13.8","0.50","0.00"
"16:04:59","78.1","75.9","93","29.50","187","5","12","0.50","0.00"
"16:09:57","78","75.8","93","29.50","181","3.8","11.5","0.50","0.00"
"16:14:57","78","75.6","92.2","29.50","186","4.9","11.5","0.50","0.00"
"16:19:59","78","75.6","92.5","29.50","182","4.5","13","0.50","0.00"
"16:24:56","77.9","75.3","91.5","29.50","207","5.2","13","0.50","0.00"
"16:29:57","77.9","75.1","91","29.50","196","4.4","9.2","0.50","0.00"
"16:34:58","78.1","75.2","90.9","29.50","214","4.6","11","0.50","0.00"
"16:39:57","78.2","75.2","90.5","29.50","185","5.3","12","0.50","0.00"
"16:44:59","78.2","75","89.8","29.50","184","6","16.1","0.50","0.00"
"16:49:59","78.3","75.1","89.9","29.50","197","4.3","9.2","0.50","0.00"
"16:54:57","78.3","75.1","89.9","29.50","209","3.4","12","0.50","0.00"
"16:59:58","78.3","75.1","90","29.50","180","2.6","6","0.50","0.00"
"17:04:59","78.2","75.1","90.3","29.49","219","3.3","15","0.51","0.01"
"17:09:57","77.4","74.5","90.8","29.49","217","5","15","0.52","0.02"
"17:14:57","76.6","74.2","92.3","29.51","233","3.9","9.2","0.52","0.02"
"17:19:58","75.6","72.9","91.5","29.51","262","4.3","11.5","0.55","0.05"
"17:24:57","74","71.2","91","29.51","339","3.6","16","0.59","0.09"
"17:29:59","72.2","69.1","90.1","29.52","332","3.8","11.5","0.62","0.11"
"17:34:57","70.7","68","91.3","29.52","306","4.3","11.5","0.63","0.13"
"17:39:58","69.8","67.7","92.8","29.52","288","3.7","11.5","0.63","0.13"
"17:44:59","69.2","67.2","93.2","29.53","333","2.9","7","0.64","0.13"
"17:49:56","68.7","66.9","94","29.53","299","1.7","5","0.64","0.14"
"17:54:58","68.4","66.6","94","29.53","313","2.9","11.5","0.64","0.14"
"17:59:56","68.2","66.6","94.9","29.53","314","3","10.4","0.65","0.15"
"18:04:57","68.1","66.6","95","29.53","318","4.5","12","0.65","0.15"
"18:09:56","68.1","66.9","96","29.53","337","2.4","6","0.65","0.14"
"18:14:56","68.3","67.1","96","29.54","335","3.1","9.2","0.65","0.13"
"18:19:57","68.4","67.2","96","29.54","319","1.5","5","0.65","0.13"
"18:24:58","68.4","67.2","96","29.54","328","3.3","16","0.65","0.10"
"18:29:56","68.4","67.2","96","29.55","310","2.4","8.1","0.65","0.06"
"18:34:57","68.3","67","95.6","29.55","311","4.3","12","0.65","0.03"
"18:39:59","68.1","66.6","95","29.55","329","3.1","9.2","0.65","0.02"
"18:44:57","68","66.5","95","29.56","337","2.6","10.4","0.65","0.02"
"18:49:58","67.8","66.3","95","29.56","333","3.3","10.4","0.65","0.01"
"18:54:56","67.5","66","95","29.56","310","3.7","12","0.65","0.01"
"18:59:59","67.2","65.6","94.5","29.57","329","4.4","11.5","0.65","0.01"
"19:04:59","67","65.4","94.8","29.57","334","5.2","14","0.65","0.00"
"19:09:57","66.9","65.4","95","29.57","344","3.6","11.5","0.65","0.00"
"19:14:57","66.7","65.1","94.6","29.58","331","3.5","13","0.65","0.00"
"19:19:55","66.6","65.1","95","29.58","358","2.3","6","0.65","0.00"
"19:24:58","66.4","64.6","94.1","29.58","336","4","11.5","0.65","0.00"
"19:29:58","66.3","64.6","94.4","29.60","344","3.9","11.5","0.65","0.00"
"19:34:57","66.2","64.7","95","29.60","330","2.8","11.5","0.65","0.00"
"19:39:56","66.1","64.5","94.8","29.60","315","3.9","10.4","0.65","0.00"
"19:44:59","65.9","64.3","94.5","29.61","327","4","12","0.65","0.00"
"19:49:55","65.8","64.3","95","29.61","330","2.9","11.5","0.65","0.00"
"19:54:59","65.7","64.2","95","29.61","319","3.2","9","0.65","0.00"
"19:59:59","65.6","64.1","95","29.62","334","3.3","9","0.65","0.00"
"20:04:56","65.6","64.1","95","29.62","345","3.9","11.5","0.65","0.00"
"20:09:58","65.6","64.1","95","29.62","334","2.9","6","0.65","0.00"
"20:14:56","65.7","64.2","95","29.63","336","3.4","14","0.65","0.00"
"20:19:59","65.7","64.2","95","29.63","322","2.5","10","0.65","0.00"
"20:24:58","65.7","64.2","95","29.63","336","4","11","0.65","0.00"
"20:29:57","65.7","64.3","95.5","29.64","331","4.4","12","0.65","0.00"
"20:34:56","65.7","64.5","96","29.64","337","3.5","11","0.65","0.00"
"20:39:56","65.7","64.5","96","29.64","335","3","11.5","0.65","0.00"
"20:44:58","65.7","64.5","96","29.65","332","2.5","11.5","0.65","0.00"
"20:49:56","65.7","64.5","96","29.65","303","3.7","11","0.65","0.00"
"20:54:58","65.6","64.4","96","29.65","319","4.8","12","0.65","0.00"
"20:59:58","65.6","64.3","95.7","29.66","321","3.4","9.2","0.65","0.00"
"21:04:55","65.5","64.1","95.3","29.66","340","3.7","16","0.65","0.00"
"21:09:58","65.5","64.2","95.9","29.66","339","4.3","13","0.66","0.00"
"21:14:56","65.4","64.1","95.6","29.67","330","3.6","11.5","0.66","0.01"
"21:19:58","65.3","63.9","95.3","29.67","323","3.7","11.5","0.66","0.01"
"21:24:57","65.3","63.8","95","29.67","338","3.7","12","0.66","0.01"
"21:29:56","65.2","63.7","95","29.68","327","3.5","11.5","0.66","0.01"
"21:34:56","65.2","63.7","95","29.68","336","4.3","11","0.66","0.01"
"21:39:59","65.2","63.7","95","29.68","326","3.6","11","0.66","0.01"
"21:44:59","65.1","63.5","94.7","29.69","331","5","15","0.66","0.01"
"21:49:56","65.1","63.3","94.2","29.69","296","4.2","13","0.66","0.01"
"21:54:59","65.1","63.3","94","29.69","326","3.8","11","0.66","0.01"
"21:59:57","65.1","63","93.1","29.69","342","4.9","13","0.66","0.01"
"22:04:59","65.1","63","93","29.69","317","3.3","12.7","0.66","0.01"
"22:09:58","65.2","62.9","92.5","29.69","334","4.9","13","0.66","0.01"
"22:14:56","65.3","62.8","91.7","29.70","323","5.6","14","0.66","0.00"
"22:19:59","65.3","62.8","91.5","29.70","340","3.9","11.5","0.66","0.00"
"22:24:58","65.4","62.7","91","29.70","356","3.4","12","0.66","0.00"
"22:29:57","65.5","62.7","90.8","29.71","348","4.9","18","0.66","0.00"
"22:34:56","65.6","62.6","90","29.71","343","3.9","13","0.66","0.00"
"22:39:59","65.6","62.5","89.8","29.71","337","4.4","17","0.66","0.00"
"22:44:58","65.8","62.3","88.7","29.71","338","5.6","17.3","0.66","0.00"
"22:49:58","65.9","62.5","88.6","29.71","335","2.1","9","0.66","0.00"
"22:54:56","65.9","62.3","88.1","29.71","346","4.3","14","0.66","0.00"
"22:59:59","66","62.3","88","29.72","329","2","12","0.66","0.00"
"23:04:56","66","62.4","88.2","29.72","348","3.6","10.4","0.66","0.00"
"23:09:59","66","62.3","88","29.72","18","3","8.1","0.66","0.00"
"23:14:58","66","62.3","88","29.72","333","3.7","13","0.66","0.00"
"23:19:57","66.1","62.3","87.6","29.72","335","2.9","9.2","0.66","0.00"
"23:24:56","66.1","62.1","87","29.72","337","4.8","15","0.66","0.00"
"23:29:56","66.3","62.2","86.8","29.73","335","3.6","15","0.66","0.00"
"23:34:59","66.4","62.1","86.3","29.73","332","4.4","15","0.66","0.00"
"23:39:59","66.5","62.2","86.1","29.73","331","3.9","11","0.66","0.00"
"23:44:59","66.5","62.3","86.3","29.74","338","4.1","10.4","0.66","0.00"
"23:49:58","66.6","62.1","85.6","29.74","324","2.6","11.5","0.66","0.00"
"23:54:57","66.7","62.3","85.8","29.74","335","3.1","12","0.66","0.00"
"23:59:59","66.7","62","85.1","29.74","307","3.1","11.5","0.66","0.00"
